Wind_Speed
27 28 28 28 29 30 30 31 32 33 34 35 35 35 35 36 36 36 36 36 37 38 39 40 41 42 42 42 43 43 44 44 45 45 46 46 47 46 47 47 48 48 48
28 28 29 29 29 29 30 31 32 33 33 33 34 34 35 36 36 36 37 37 37 38 39 39 40 40 41 41 41 41 42 42 42 43 43 43 44 44 44 44 45 45 45
26 27 28 28 28 29 30 30 31 32 33 33 33 34 34 35 35 36 36 36 37 37 38 38 38 38 38 38 38 39 39 39 40 40 40 40 40 40 41 41 41 41 41
24 25 26 26 27 27 28 29 30 31 32 32 32 33 33 34 34 34 35 35 36 36 36 36 35 35 35 36 37 37 36 37 37 36 36 36 37 37 37 37 37 37 38
22 23 24 25 26 27 27 28 29 29 30 30 31 31 31 31 32 33 33 33 33 33 32 33 33 34 34 34 35 35 35 34 33 33 33 33 33 33 33 34 34 34 34
21 22 23 23 24 25 26 26 27 27 27 28 28 28 29 29 30 31 30 30 30 30 31 31 32 32 32 33 33 33 33 31 30 31 31 31 31 31 32 32 31 30 30
20 21 22 22 22 23 23 24 24 25 25 26 26 27 27 28 28 27 27 27 27 27 28 29 30 30 30 29 30 29 29 29 29 29 29 28 28 29 28 28 27 25 25
18 19 19 20 20 21 22 23 23 23 24 24 24 24 24 25 25 25 25 25 25 26 25 25 25 25 25 25 25 25 26 25 25 25 25 24 24 23 23 22 22 22 22
17 17 17 18 18 19 20 21 21 21 21 21 22 22 23 23 23 23 23 23 23 23 23 22 22 22 22 22 22 22 22 21 21 21 20 20 20 19 19 18 18 18 18
16 16 17 17 17 18 18 19 19 19 19 19 20 19 20 20 20 20 20 20 20 20 20 20 20 20 20 20 20 20 19 19 18 18 17 16 16 15 15 15 15 14 15
15 15 15 15 16 17 17 18 17 17 17 18 18 18 18 18 18 18 17 17 17 17 18 18 18 18 18 18 18 17 17 16 15 14 14 13 13 13 13 12 12 12 12
13 13 14 14 15 15 15 15 16 16 16 16 16 16 15 15 15 15 15 15 15 16 16 16 16 16 16 16 16 15 14 13 12 12 11 11 11 11 10 10 10 11 11
11 11 12 13 13 14 14 14 14 14 14 13 13 13 14 14 14 14 14 14 14 14 15 15 15 15 15 14 13 12 12 11 11 10 10 10 9 9 9 9 9 10 10
10 10 11 11 12 12 12 12 12 12 12 12 12 12 12 12 12 12 12 12 12 12 12 12 12 12 12 12 11 11 11 10 9 9 8 8 7 7 7 8 8 9 9
9 9 10 10 10 11 11 11 11 11 11 10 10 10 10 10 10 10 9 10 10 11 11 11 11 11 11 11 10 10 9 8 8 7 6 6 6 6 6 7 7 8 9
7 8 8 9 9 10 10 10 10 10 9 9 8 8 8 8 8 8 8 9 10 10 11 11 11 10 10 10 9 8 8 7 6 6 5 5 5 5 6 6 7 7 8
6 7 8 8 9 9 9 9 9 9 8 8 8 8 8 8 8 8 9 9 10 10 10 10 10 9 9 8 8 7 6 6 5 5 5 4 4 5 5 6 6 7 8
6 7 7 8 8 8 8 8 8 8 7 7 7 8 8 8 9 9 9 9 9 9 9 10 9 8 8 7 7 6 5 4 4 4 4 4 4 4 5 6 6 7 8
7 7 7 8 8 8 8 8 7 7 7 7 7 8 8 8 9 9 9 9 9 9 9 9 9 8 7 7 6 5 4 4 4 4 4 4 4 4 5 6 7 8 9
7 7 7 8 8 8 8 8 8 8 8 8 8 8 8 9 9 9 9 9 9 9 9 8 8 8 7 6 6 5 4 4 4 4 4 4 5 5 6 7 8 9 10
8 8 8 8 9 9 9 9 9 9 9 9 9 9 9 9 10 10 9 9 9 9 9 9 8 7 7 6 5 5 5 5 5 5 5 6 6 7 8 8 9 10 11
9 9 9 10 10 10 10 10 10 10 9 9 9 10 10 10 10 10 10 10 10 10 9 9 8 8 7 6 6 6 6 7 7 7 7 7 8 9 9 10 10 11 12
9 10 10 10 10 11 11 11 11 11 11 10 11 11 11 11 11 12 11 11 11 11 10 10 10 9 8 8 8 8 8 8 9 9 9 9 10 10 10 11 11 12 12
11 11 11 11 11 12 12 12 11 11 11 11 11 12 12 12 12 12 12 12 12 12 12 11 11 11 11 10 10 10 10 10 10 10 10 11 11 11 11 11 12 12 13
14 13 13 13 12 12 12 12 12 12 12 12 12 13 13 13 13 13 13 13 13 13 13 12 12 12 12 12 12 12 12 12 12 12 12 12 12 12 12 12 12 12 12
15 14 14 13 13 13 13 12 12 12 12 13 13 13 13 13 13 13 13 14 14 13 13 13 13 13 13 13 13 13 13 13 13 13 13 13 12 12 12 12 12 12 12
Wind_Direction
265 265 264 265 264 265 267 268 268 269 271 272 273 274 276 277 278 279 280 281 282 283 283 284 284 284 283 284 284 283 284 284 284 285 286 286 286 286 286 286 286 287 287
265 265 266 267 268 269 269 270 271 271 272 274 275 276 278 279 279 280 281 283 283 284 284 285 286 286 286 286 286 285 285 285 286 286 287 286 286 286 287 287 288 289 289
266 266 268 268 268 269 270 272 273 274 275 277 277 278 279 280 280 281 282 283 283 285 286 286 287 287 287 288 288 288 287 288 288 288 288 288 287 288 289 289 290 291 292
267 268 268 268 270 270 271 272 273 275 276 277 278 279 280 281 281 282 283 283 284 286 287 287 288 288 289 289 289 289 289 289 290 289 289 289 289 290 290 291 292 294 295
271 270 270 271 272 272 274 275 276 277 279 280 280 280 280 281 281 282 283 284 286 287 288 288 289 290 290 290 291 291 290 290 290 291 291 291 291 292 293 294 295 296 297
272 271 272 272 274 274 276 277 278 279 280 282 282 281 282 283 283 283 284 286 288 289 290 291 291 291 292 292 293 292 291 290 290 291 292 292 292 294 295 297 298 298 298
274 273 273 274 275 276 277 279 279 280 281 282 283 284 284 284 283 284 286 289 291 292 293 293 293 292 293 294 294 293 292 292 292 292 293 294 296 298 299 300 301 302 303
276 276 276 277 278 279 281 283 284 283 282 283 285 287 288 288 287 289 290 291 292 294 296 296 295 295 296 297 297 297 297 296 296 296 297 298 301 304 304 304 305 306 308
278 279 280 281 283 285 285 285 285 285 286 287 288 289 290 289 289 290 292 294 295 296 298 298 298 299 301 302 302 302 302 302 302 304 305 306 307 308 310 311 312 314 316
280 281 280 281 283 287 289 289 288 289 290 291 291 291 293 293 293 293 294 296 298 299 300 300 301 302 303 304 305 306 307 308 309 310 310 311 313 314 316 318 320 322 324
280 282 282 285 287 291 293 292 291 292 293 293 292 293 294 296 296 296 297 300 302 303 304 304 306 307 308 309 309 310 312 313 314 315 315 316 319 322 325 327 330 332 333
283 285 287 290 292 295 296 297 297 296 296 295 296 297 299 300 300 300 301 304 306 306 308 309 310 313 315 315 315 315 315 316 318 319 320 322 326 328 332 336 339 342 345
285 288 292 296 298 299 300 301 302 301 300 301 301 303 305 305 305 305 305 307 308 310 312 314 316 317 320 322 322 322 322 322 322 324 325 327 330 333 338 344 347 351 355
291 296 300 304 305 305 306 306 307 307 307 307 308 310 311 313 312 311 311 311 314 316 318 320 321 323 326 328 328 327 327 327 327 327 329 333 335 340 348 355 359 4 9
299 305 308 311 313 314 315 316 317 317 318 318 317 318 321 322 322 322 322 323 324 326 326 327 328 328 328 328 328 329 330 332 335 336 339 344 349 357 6 10 12 15 19
310 316 320 323 325 327 328 329 330 330 331 332 332 332 332 333 335 335 333 332 331 330 331 330 330 330 330 331 331 332 335 340 345 350 353 358 5 11 15 16 18 24 30
319 323 327 330 333 335 336 338 340 342 343 343 342 343 342 342 341 338 336 335 334 333 333 333 333 333 334 335 337 339 343 349 356 1 3 9 18 24 25 25 29 34 38
333 335 336 338 340 343 345 346 346 347 350 351 350 349 349 348 348 346 343 342 340 339 339 339 340 341 342 344 347 351 356 360 4 9 14 23 32 35 37 38 42 45 46
351 354 355 358 359 360 359 357 356 358 359 0 360 359 358 358 357 356 354 352 350 349 348 349 350 351 353 355 359 3 8 14 19 25 35 47 50 49 50 52 55 56 55
15 14 12 11 10 10 11 11 11 11 11 10 9 8 7 5 4 4 3 3 2 1 360 1 2 3 3 5 10 16 24 31 37 48 60 68 67 65 66 68 67 63 60
30 26 25 23 21 22 21 20 19 19 17 17 19 19 18 17 16 16 16 17 16 15 14 14 14 15 17 21 27 34 42 49 60 70 77 78 76 76 79 78 74 69 66
36 36 35 34 33 33 30 26 25 25 26 28 29 28 27 27 27 29 30 29 27 26 25 24 25 27 32 38 43 50 60 68 74 80 83 85 86 86 85 82 78 73 68
43 43 42 41 40 38 36 33 34 35 36 36 36 35 35 36 38 38 37 35 33 33 34 35 37 41 47 53 59 65 71 75 79 82 87 90 91 90 86 83 79 74 68
51 50 49 47 44 41 38 39 40 41 41 41 41 41 42 42 42 42 41 40 40 41 44 46 49 53 58 63 67 72 77 80 82 85 88 92 91 89 86 82 77 71 65
54 53 51 49 46 42 41 42 44 44 45 46 45 45 45 45 45 45 45 46 47 49 51 54 56 59 63 68 72 75 78 80 83 86 88 90 89 87 83 78 72 66 60
53 52 50 48 46 44 44 44 45 46 47 47 47 46 45 46 47 49 49 49 50 52 54 56 58 61 66 70 73 76 78 81 83 85 86 87 85 82 78 72 66 60 54
Height
5757 5758 5758 5758 5758 5759 5759 5759 5760 5760 5760 5760 5760 5759 5759 5758 5757 5757 5756 5755 5753 5752 5751 5749 5747 5745 5743 5741 5739 5736 5734 5732 5729 5726 5724 5720 5717 5714 5711 5708 5705 5701 5698
5749 5750 5750 5750 5751 5751 5751 5751 5751 5751 5751 5751 5750 5750 5749 5749 5748 5747 5746 5744 5743 5741 5740 5738 5736 5734 5732 5729 5727 5724 5722 5720 5717 5714 5711 5708 5705 5702 5699 5696 5692 5689 5686
5741 5742 5742 5743 5743 5743 5743 5743 5743 5743 5742 5742 5741 5741 5740 5739 5738 5737 5735 5734 5733 5731 5729 5727 5725 5723 5721 5718 5716 5713 5710 5708 5705 5703 5699 5696 5693 5691 5688 5685 5681 5678 5675
5735 5735 5735 5735 5735 5735 5735 5735 5735 5734 5734 5733 5732 5731 5730 5729 5728 5727 5726 5724 5722 5721 5719 5717 5715 5712 5710 5708 5705 5702 5700 5697 5694 5692 5689 5686 5684 5681 5678 5674 5671 5668 5665
5728 5728 5728 5728 5728 5728 5727 5727 5727 5726 5725 5724 5723 5722 5721 5720 5719 5718 5717 5715 5713 5711 5709 5707 5705 5703 5700 5698 5695 5693 5690 5687 5685 5682 5680 5677 5674 5671 5668 5665 5662 5659 5655
5722 5722 5721 5721 5721 5721 5720 5719 5719 5718 5717 5716 5715 5714 5712 5711 5710 5709 5708 5706 5704 5703 5700 5698 5696 5693 5691 5688 5686 5683 5681 5678 5676 5674 5671 5668 5665 5662 5660 5657 5654 5651 5648
5716 5716 5715 5715 5714 5714 5713 5713 5712 5711 5710 5709 5707 5706 5705 5703 5702 5701 5700 5698 5696 5694 5692 5690 5687 5685 5682 5679 5677 5674 5672 5670 5668 5665 5663 5660 5658 5655 5652 5649 5646 5644 5641
5710 5709 5709 5709 5708 5707 5707 5706 5705 5704 5703 5701 5700 5699 5697 5696 5695 5694 5692 5691 5689 5687 5684 5682 5680 5678 5675 5672 5670 5667 5665 5662 5660 5658 5656 5653 5651 5648 5646 5643 5641 5638 5635
5704 5703 5703 5702 5702 5701 5700 5699 5698 5697 5696 5694 5693 5692 5691 5689 5688 5687 5685 5683 5682 5680 5678 5676 5674 5671 5669 5666 5664 5661 5659 5656 5654 5652 5650 5648 5645 5643 5641 5639 5636 5634 5631
5699 5699 5698 5697 5696 5695 5694 5693 5692 5691 5689 5688 5687 5686 5685 5683 5682 5680 5679 5677 5676 5674 5672 5670 5668 5666 5663 5661 5658 5656 5654 5651 5649 5647 5645 5643 5641 5640 5637 5635 5633 5631 5628
5695 5694 5693 5693 5692 5691 5690 5688 5687 5686 5684 5683 5682 5681 5679 5678 5676 5675 5673 5672 5670 5668 5667 5665 5663 5660 5658 5656 5653 5651 5649 5647 5645 5643 5642 5640 5639 5637 5635 5633 5630 5628 5626
5691 5690 5689 5689 5688 5687 5685 5684 5683 5681 5680 5679 5677 5676 5674 5673 5672 5670 5669 5667 5666 5664 5662 5660 5658 5656 5654 5651 5649 5647 5646 5644 5642 5641 5639 5638 5636 5634 5633 5631 5629 5626 5624
5687 5687 5686 5685 5684 5683 5682 5680 5679 5677 5676 5674 5673 5672 5670 5669 5667 5666 5665 5663 5661 5660 5658 5656 5654 5652 5650 5648 5646 5644 5643 5641 5640 5638 5637 5636 5634 5633 5631 5629 5627 5625 5623
5684 5684 5683 5682 5681 5680 5678 5677 5675 5674 5672 5671 5670 5668 5667 5665 5664 5663 5661 5660 5658 5657 5655 5653 5651 5649 5647 5646 5644 5642 5641 5639 5638 5636 5635 5634 5633 5631 5630 5628 5627 5625 5623
5682 5681 5680 5679 5678 5677 5676 5674 5673 5671 5670 5668 5667 5666 5664 5663 5661 5660 5658 5657 5655 5654 5652 5651 5649 5647 5645 5644 5642 5641 5639 5638 5636 5635 5634 5633 5632 5631 5629 5628 5627 5625 5623
5680 5680 5679 5678 5676 5675 5674 5672 5670 5669 5668 5666 5665 5664 5662 5661 5659 5658 5657 5655 5653 5652 5650 5649 5647 5645 5644 5642 5640 5639 5638 5637 5635 5634 5633 5632 5631 5630 5629 5628 5627 5625 5623
5679 5678 5677 5676 5675 5673 5672 5671 5669 5668 5666 5665 5664 5662 5661 5660 5658 5657 5655 5653 5652 5650 5649 5647 5645 5644 5642 5641 5639 5638 5637 5636 5635 5634 5633 5632 5631 5630 5629 5628 5627 5625 5624
5678 5677 5676 5675 5674 5672 5671 5670 5668 5667 5666 5664 5663 5662 5660 5659 5657 5655 5654 5652 5651 5649 5648 5646 5644 5642 5641 5639 5638 5637 5636 5635 5634 5633 5632 5632 5631 5630 5630 5629 5627 5626 5625
5677 5676 5675 5674 5673 5672 5671 5669 5668 5667 5665 5664 5663 5661 5660 5658 5656 5655 5653 5652 5650 5648 5646 5645 5643 5641 5640 5639 5637 5636 5635 5634 5634 5633 5632 5632 5631 5631 5630 5629 5628 5627 5626
5677 5676 5675 5674 5673 5672 5671 5669 5668 5667 5665 5664 5662 5661 5659 5658 5656 5655 5653 5651 5650 5648 5646 5644 5642 5641 5639 5638 5637 5636 5635 5634 5634 5633 5633 5632 5632 5631 5631 5630 5630 5629 5628
5678 5677 5676 5675 5674 5672 5671 5670 5668 5667 5665 5664 5663 5661 5660 5658 5657 5655 5653 5651 5650 5648 5646 5644 5643 5641 5640 5638 5637 5636 5636 5635 5634 5634 5633 5633 5633 5633 5632 5632 5631 5631 5630
5679 5678 5677 5676 5675 5673 5672 5671 5669 5668 5666 5665 5664 5662 5661 5659 5657 5656 5654 5652 5650 5649 5647 5645 5643 5642 5640 5639 5638 5637 5637 5636 5635 5635 5635 5635 5635 5635 5634 5634 5634 5633 5632
5680 5679 5678 5677 5676 5675 5674 5672 5671 5669 5668 5667 5665 5664 5662 5661 5659 5657 5656 5654 5652 5650 5648 5646 5645 5643 5642 5640 5639 5639 5638 5638 5637 5637 5637 5637 5637 5637 5637 5636 5636 5635 5634
5682 5681 5680 5679 5678 5677 5676 5674 5673 5672 5670 5669 5667 5666 5664 5663 5661 5659 5658 5656 5654 5652 5650 5648 5647 5645 5644 5643 5642 5641 5640 5640 5640 5640 5639 5639 5639 5640 5640 5639 5639 5638 5637
5685 5684 5683 5682 5681 5680 5678 5677 5676 5674 5673 5671 5670 5668 5667 5665 5664 5662 5660 5658 5657 5655 5653 5651 5650 5648 5647 5646 5645 5644 5644 5643 5643 5643 5642 5642 5643 5643 5643 5642 5641 5641 5639
5689 5687 5686 5685 5684 5683 5681 5680 5678 5677 5675 5674 5672 5671 5669 5668 5666 5665 5663 5661 5660 5658 5656 5655 5653 5652 5651 5650 5649 5648 5647 5647 5647 5646 5646 5646 5646 5646 5645 5645 5644 5643 5642